Zurück zum Katalog

STARLINK-32519

AktivKommunikationVLEO
NORAD 62317·PAYLOAD·🇺🇸 United States

Gestartet Dec 13, 2024 von Vandenberg Space Force Base

Loading…

Nächste Überflüge (nächste 24 Stunden)

TLE

AktuellSource: CelesTrak SupGP

Epoche: Sep 14, 2026, 15:02 UTC

1 62317C 24239S   26257.62687500 -.00085723  00000+0 -27567-2 0  2577
2 62317  53.1589  22.1627 0001268  86.6213 158.5083 15.31744296    18

Verfolge STARLINK-32519 in Echtzeit mit AllMySat

Download on the App Store